EBCVEDLW

Guest
Details From EBCV - Chievres AB
To EDLW - Dortmund-Wickede
Flight Number -
Tags generated
Created
Modified
Stats Distance 154 nm / 285 km
Max Altitude 13,900 ft / 4,237 m
Waypoints 3
Social Downloads 0
Likes 0
Share VATSIM

Download

Looking for another format? Having issues loading an existing format? Contact us
Advertisement - Login to hide

Notes

Basic altitude profile: - Ascent Rate: 2500ft/min - Ascent Speed: 250kts - Cruise Altitude: 35000ft - Cruise Speed: 420kts - Descent Rate: 1500ft/min - Descent Speed: 250kts Options: - Use NATs: yes - Use PACOTS: yes - Use low airways: yes - Use high airways: yes

Route

EBCV RILTI EDLW

ID Type Via Altitude Latitude Longitude Leg Dist Tot Dist Heading (true) Name
O EBCV APT - 0 ft / 0 m 50.57584˚ 3.83108˚ - 0 nm - Chievres AB
RILTI FIX - 13,900 ft / 4,237 m 51.09750˚ 5.88500˚ 83 nm 83 nm 67° / 69° -
O EDLW APT - 0 ft / 0 m 51.51911˚ 7.61445˚ 69 nm 153 nm 68° / 69° Dortmund-Wickede

Altitude Profile

Advertisement - Login to hide

EBCV

Details ICAO EBCV
Name Chievres AB
Region Belgium
Timezone Europe/Brussels (UTC+2.0)
Stats Elevation 201 ft / 61 m (AMSL)
Location 50.575840° 3.831076°
Runways 1
Magnetic Variation 0.995° E

METAR

EBCV 250355Z AUTO VRB02KT 0650 FG SCT003/// 11/11 Q1017 RED

Decode

TAF

Not found

Departure Runways

ID Width Length Bearing (true) Bearing (mag) Surface Threshold Offset Overrun Length
08 164 ft / 50 m 6,288 ft / 1,917 m 79.82° 78.82° Asphalt 0 ft / 0 m 0 ft / 0 m
26 164 ft / 50 m 6,288 ft / 1,917 m 259.84° 258.84° Asphalt 0 ft / 0 m 0 ft / 0 m

EDLW

Details ICAO EDLW (DTM)
Name Dortmund-Wickede
Region Germany - Civil
Timezone Europe/Berlin (UTC+2.0)
Stats Elevation 425 ft / 130 m (AMSL)
Location 51.519107° 7.614447°
Runways 1
Magnetic Variation 2.118° E

METAR

EDLW 250350Z 08002KT 6000 -DZ FEW010 SCT046 OVC061 15/14 Q1017

Decode

TAF

TAF EDLW 250350Z 2504/2524 10005KT 9999 SCT040 TEMPO 2504/2506 SHRA BKN030TCU PROB30 TEMPO 2514/2519 12010KT TSRA BKN030CB

Decode

Destination Runways

ID Width Length Bearing (true) Bearing (mag) Surface Threshold Offset Overrun Length
06 148 ft / 45 m 6,546 ft / 1,995 m 60.50° 58.38° Asphalt 984 ft / 300 m 197 ft / 60 m
24 148 ft / 45 m 6,546 ft / 1,995 m 240.52° 238.40° Asphalt 984 ft / 300 m 197 ft / 60 m

Approach Navaids

Runway Type Ident Frequency Range Bearing (true) Bearing (mag) Slope Elevation
06 Localiser IDWE 109.15 MHz 18 nm / 33 km 60.52° 58.41° - 425 ft / 130 m (AMSL)
06 Glidescope IDWE 109.15 MHz 10 nm / 19 km 60.51° 58.39° 3.00° 425 ft / 130 m (AMSL)
24 Localiser IDWW 110.30 MHz 18 nm / 33 km 240.49° 238.37° - 425 ft / 130 m (AMSL)
24 Glidescope IDWW 110.30 MHz 10 nm / 19 km 240.51° 238.39° 3.00° 425 ft / 130 m (AMSL)